Terminal Aerodrome Forecast
Issued by NWS

Home | Current Version | Previous Version | Text Only | Print | Product List | Glossary On
Versions: 1 2 3 4 5 6 7 8 9 10 11 12 13 14 15 16 17 18 19 20 21 22 23 24 25 26 27 28 29 30 31 32 33 34 35 36 37 38
000
FTUS43 KLOT 260300 AAA
TAFORD
TAF AMD
KORD 260300Z 2603/2706 19004KT P6SM FEW018 SCT250
     FM261300 14005KT P6SM BKN200
     FM262100 07005KT P6SM OVC150
     FM270200 33005KT P6SM BKN080=

USA.gov is the U.S. government's official web portal to all federal, state and local government web resources and services.